Weather History for Kerrville, TX

Change the Weather History Date:

Thursday, October 13, 2011

  Actual Average (KHDO) Record (KHDO)
Temperature  
Mean Temperature 68 °F -  
Max Temperature 82 °F 80 °F 91 °F (1999)
Min Temperature 55 °F 57 °F 50 °F (1997)
Cooling Degree Days 4    
Growing Degree Days 18 (Base 50)    
Moisture  
Dew Point 46 °F    
Average Humidity 52    
Maximum Humidity 94    
Minimum Humidity 16    
Precipitation  
Precipitation 0.00 in - - ()
Sea Level Pressure  
Sea Level Pressure 29.99 in    
Wind  
Wind Speed 3 mph (North)    
Max Wind Speed 10 mph    
Max Gust Speed 17 mph    
Visibility 10 miles    
Events      
Averages and records for this station are not official NWS values.
T = Trace of Precipitation, MM = Missing Value Source: NWS Daily Summary

Daily Weather History Graph

Daily Weather History Graph

Search for Another Location

Airport:

Trip Planner

Search our weather history database for the weather conditions in past years. The results will help you decide how hot, cold, wet, or windy it might be!

Date:

Astronomy

Oct. 13, 2011 Rise Set
Actual Time 7:36 AM CDT 7:07 PM CDT
Civil Twilight 7:12 AM CDT 7:32 PM CDT
Nautical Twilight 6:44 AM CDT 7:59 PM CDT
Astronomical Twilight 6:17 AM CDT 8:27 PM CDT
Moon 7:57 PM CDT (10/13) 8:58 AM CDT (10/13)
Length of Visible Light 12h 19m
Length of Day
11h 31m
Full, 98% of the Moon is Illuminated
Oct 13
Full
Oct 19
Last Quarter
Oct 26
New
Nov 2
First Quarter
Nov 10
Full

Hourly Weather History & Observations

Time (CDT) Temp. Dew Point Humidity Pressure Visibility Wind Dir Wind Speed Gust Speed Precip Events Conditions
12:15 AM 71.6 °F 59.0 °F 64% 29.93 in 10.0 mi Calm Calm - N/A   Clear
12:35 AM 68.0 °F 59.0 °F 73% 29.93 in 10.0 mi West 3.5 mph - N/A   Clear
12:55 AM 68.0 °F 59.0 °F 73% 29.94 in 10.0 mi WNW 4.6 mph - N/A   Clear
1:15 AM 68.0 °F 60.8 °F 78% 29.94 in 10.0 mi WNW 4.6 mph - N/A   Clear
1:35 AM 66.2 °F 59.0 °F 78% 29.94 in 10.0 mi NW 4.6 mph - N/A   Clear
1:55 AM 64.4 °F 60.8 °F 88% 29.95 in 10.0 mi NW 4.6 mph - N/A   Clear
2:15 AM 64.4 °F 60.8 °F 88% 29.95 in 10.0 mi Calm Calm - N/A   Clear
2:35 AM 64.4 °F 60.8 °F 88% 29.96 in 10.0 mi SSW 3.5 mph - N/A   Clear
2:55 AM 64.4 °F 60.8 °F 88% 29.97 in 10.0 mi Calm Calm - N/A   Clear
3:15 AM 64.4 °F 60.8 °F 88% 29.97 in 10.0 mi Calm Calm - N/A   Clear
3:35 AM 64.4 °F 60.8 °F 88% 29.97 in 10.0 mi Calm Calm - N/A   Clear
3:55 AM 64.4 °F 60.8 °F 88% 29.98 in 10.0 mi Calm Calm - N/A   Clear
4:15 AM 62.6 °F 59.0 °F 88% 29.98 in 10.0 mi Calm Calm - N/A   Clear
4:35 AM 62.6 °F 59.0 °F 88% 29.98 in 10.0 mi Calm Calm - N/A   Clear
4:55 AM 60.8 °F 59.0 °F 94% 29.98 in 10.0 mi North 3.5 mph - N/A   Clear
5:15 AM 60.8 °F 59.0 °F 94% 29.98 in 10.0 mi NNW 3.5 mph - N/A   Clear
5:35 AM 60.8 °F 59.0 °F 94% 29.98 in 10.0 mi NNW 3.5 mph - N/A   Clear
5:55 AM 60.8 °F 59.0 °F 94% 29.99 in 10.0 mi Calm Calm - N/A   Clear
6:15 AM 60.8 °F 59.0 °F 94% 30.00 in 10.0 mi Calm Calm - N/A   Clear
6:35 AM 59.0 °F 57.2 °F 94% 30.00 in 7.0 mi Calm Calm - N/A   Clear
7:15 AM 59.0 °F 55.4 °F 88% 30.01 in 7.0 mi Calm Calm - N/A   Clear
7:35 AM 59.0 °F 55.4 °F 88% 30.01 in 7.0 mi NNW 3.5 mph - N/A   Clear
7:55 AM 55.4 °F 53.6 °F 94% 30.02 in 7.0 mi NNW 3.5 mph - N/A   Clear
8:15 AM 59.0 °F 55.4 °F 88% 30.02 in 7.0 mi Calm Calm - N/A   Clear
8:35 AM 59.0 °F 55.4 °F 88% 30.03 in 5.0 mi Calm Calm - N/A   Clear
9:15 AM 62.6 °F 59.0 °F 88% 30.04 in 10.0 mi West 3.5 mph - N/A   Clear
9:35 AM 66.2 °F 59.0 °F 78% 30.05 in 10.0 mi Calm Calm - N/A   Clear
9:55 AM 71.6 °F 51.8 °F 50% 30.06 in 10.0 mi NNE 4.6 mph - N/A   Clear
10:15 AM 73.4 °F 48.2 °F 41% 30.06 in 10.0 mi NNE 10.4 mph - N/A   Clear
10:35 AM 73.4 °F 42.8 °F 33% 30.06 in 10.0 mi NE 10.4 mph 17.3 mph N/A   Clear
10:55 AM 77.0 °F 42.8 °F 29% 30.06 in 10.0 mi NE 6.9 mph - N/A   Clear
11:15 AM 77.0 °F 41.0 °F 28% 30.07 in 10.0 mi NNE 8.1 mph - N/A   Clear
11:35 AM 77.0 °F 41.0 °F 28% 30.07 in 10.0 mi NNE 9.2 mph - N/A   Clear
11:55 AM 78.8 °F 37.4 °F 23% 30.06 in 10.0 mi NE 6.9 mph - N/A   Clear
12:15 PM 78.8 °F 37.4 °F 23% 30.06 in 10.0 mi North 8.1 mph - N/A   Clear
12:35 PM 78.8 °F 35.6 °F 21% 30.05 in 10.0 mi NE 10.4 mph - N/A   Clear
12:55 PM 80.6 °F 32.0 °F 17% 30.05 in 10.0 mi North 5.8 mph - N/A   Clear
1:15 PM 80.6 °F 32.0 °F 17% 30.05 in 10.0 mi North 8.1 mph - N/A   Clear
1:35 PM 80.6 °F 32.0 °F 17% 30.04 in 10.0 mi North 8.1 mph - N/A   Clear
2:15 PM 80.6 °F 32.0 °F 17% 30.01 in 10.0 mi North 3.5 mph - N/A   Clear
2:35 PM 80.6 °F 32.0 °F 17% 30.00 in 10.0 mi North 8.1 mph - N/A   Clear
3:15 PM 82.4 °F 32.0 °F 16% 29.99 in 10.0 mi NNW 10.4 mph - N/A   Clear
3:35 PM 82.4 °F 32.0 °F 16% 29.98 in 10.0 mi NNW 5.8 mph - N/A   Clear
3:55 PM 82.4 °F 32.0 °F 16% 29.97 in 10.0 mi NNE 8.1 mph - N/A   Clear
4:15 PM 82.4 °F 32.0 °F 16% 29.97 in 10.0 mi North 6.9 mph - N/A   Clear
4:35 PM 82.4 °F 33.8 °F 17% 29.96 in 10.0 mi ENE 4.6 mph - N/A   Clear
4:55 PM 82.4 °F 32.0 °F 16% 29.96 in 10.0 mi Calm Calm - N/A   Clear
5:15 PM 82.4 °F 32.0 °F 16% 29.96 in 10.0 mi NNW 5.8 mph - N/A   Clear
5:35 PM 82.4 °F 32.0 °F 16% 29.96 in 10.0 mi NNW 5.8 mph - N/A   Clear
5:55 PM 82.4 °F 32.0 °F 16% 29.96 in 10.0 mi North 3.5 mph - N/A   Clear
6:15 PM 80.6 °F 32.0 °F 17% 29.95 in 10.0 mi NNE 3.5 mph - N/A   Clear
6:35 PM 80.6 °F 32.0 °F 17% 29.95 in 10.0 mi NNE 4.6 mph - N/A   Clear
6:55 PM 78.8 °F 32.0 °F 18% 29.96 in 10.0 mi NE 4.6 mph - N/A   Clear
7:15 PM 77.0 °F 32.0 °F 19% 29.96 in 10.0 mi NE 5.8 mph - N/A   Clear
7:35 PM 73.4 °F 37.4 °F 27% 29.96 in 10.0 mi NNE 5.8 mph - N/A   Clear
7:55 PM 71.6 °F 37.4 °F 29% 29.96 in 10.0 mi Calm Calm - N/A   Clear
8:15 PM 68.0 °F 37.4 °F 33% 29.97 in 10.0 mi NNE 3.5 mph - N/A   Clear
8:35 PM 68.0 °F 37.4 °F 33% 29.98 in 10.0 mi Calm Calm - N/A   Clear
8:55 PM 62.6 °F 44.6 °F 52% 29.98 in 10.0 mi WSW 3.5 mph - N/A   Clear
9:15 PM 64.4 °F 42.8 °F 45% 29.98 in 10.0 mi Calm Calm - N/A   Clear
9:35 PM 64.4 °F 42.8 °F 45% 29.99 in 10.0 mi Calm Calm - N/A   Clear
9:55 PM 60.8 °F 44.6 °F 55% 29.99 in 10.0 mi Calm Calm - N/A   Clear
10:15 PM 60.8 °F 42.8 °F 52% 29.99 in 10.0 mi Calm Calm - N/A   Clear
10:35 PM 60.8 °F 44.6 °F 55% 30.00 in 10.0 mi Calm Calm - N/A   Clear
10:55 PM 59.0 °F 44.6 °F 59% 30.00 in 10.0 mi Calm Calm - N/A   Clear
11:15 PM 57.2 °F 44.6 °F 63% 30.00 in 10.0 mi North 3.5 mph - N/A   Clear
11:35 PM 55.4 °F 44.6 °F 67% 30.00 in 10.0 mi Calm Calm - N/A   Clear
11:55 PM 55.4 °F 46.4 °F 72% 30.00 in 10.0 mi WNW 3.5 mph - N/A   Clear